Evans Head Observation History
Time Wind Speed Temp Pressure Rel. Hum Rain
25/02:30pm NE 14-23 kts 27.9°c 1010.2 hPa 58% 0.0mm
25/02:00pm NNE 13-21 kts 28.5°c 1010.5 hPa 57% 0.0mm
25/01:30pm NNE 12-21 kts 29.0°c 1011.0 hPa 53% 0.0mm
25/01:00pm NNE 12-18 kts 29.8°c 1011.4 hPa 57% 0.0mm
25/12:30pm ENE 13-18 kts 28.0°c 1011.6 hPa 61% 0.0mm
25/12:00pm N 9-13 kts 30.7°c 1011.7 hPa 50% 0.0mm
25/11:30am NNE 9-13 kts 30.3°c 1012.0 hPa 52% 0.0mm
25/11:00am N 9-15 kts 30.0°c 1012.3 hPa 54% 0.0mm
25/10:30am N 7-11 kts 28.5°c 1012.5 hPa 60% 0.0mm
25/10:00am N 5-9 kts 28.3°c 1012.7 hPa 61% 0.0mm
25/09:30am E 6-9 kts 26.6°c 1012.8 hPa 67% 0.0mm
25/09:00am E 6-9 kts 25.9°c 1013.0 hPa 67% 0.0mm
25/08:30am NNW 3-4 kts 24.8°c 1012.9 hPa 71% 0.0mm
25/08:00am NW 4-6 kts 23.9°c 1012.9 hPa 75% 0.0mm
25/07:30am NW 5-6 kts 21.0°c 1012.7 hPa 86% 0.0mm
25/07:00am WNW 6-7 kts 20.5°c 1012.5 hPa 86% 0.0mm
25/06:30am NW 5-7 kts 20.1°c 1012.4 hPa 88% 0.0mm
25/06:00am WNW 6-7 kts 20.1°c 1012.2 hPa 88% 0.0mm
25/05:30am WNW 5-6 kts 20.0°c 1011.9 hPa 87% 0.0mm
25/05:00am WNW 5-7 kts 20.1°c 1011.6 hPa 87% 0.0mm
25/04:30am NW 4-5 kts 19.0°c 1011.6 hPa 91% 0.0mm
25/04:00am NNW 4-6 kts 18.9°c 1011.6 hPa 91% 0.0mm
25/03:30am NNW 4-6 kts 19.2°c 1011.5 hPa 89% 0.0mm
25/03:00am NNW 5-7 kts 19.7°c 1011.6 hPa 87% 0.0mm
25/02:30am N 6-9 kts 20.3°c 1012.0 hPa 85% 0.0mm
25/02:00am N 8-12 kts 20.6°c 1012.3 hPa 83% 0.0mm
25/01:30am N 8-11 kts 20.6°c 1012.5 hPa 84% 0.0mm
25/01:00am N 8-12 kts 21.0°c 1012.8 hPa 83% 0.0mm
25/12:30am N 7-10 kts 21.2°c 1013.2 hPa 83% 0.0mm
25/12:00am N 8-10 kts 21.4°c 1013.3 hPa 82% 0.0mm
Time Wind Speed Temp Pressure Rel. Hum Rain
24/11:30pm N 8-11 kts 22.0°c 1013.8 hPa 78% 0.0mm
24/11:00pm N 9-13 kts 22.3°c 1014.0 hPa 76% 0.0mm
24/10:30pm N 9-15 kts 22.4°c 1014.0 hPa 75% 0.0mm
24/10:00pm NNE 8-13 kts 22.6°c 1013.9 hPa 74% 0.0mm
24/09:30pm NNE 8-12 kts 22.6°c 1013.7 hPa 74% 0.0mm
24/09:00pm NNE 8-12 kts 22.7°c 1013.6 hPa 74% 0.0mm
24/08:30pm NNE 10-15 kts 23.0°c 1013.4 hPa 73% 0.0mm
24/08:00pm NNE 10-14 kts 23.1°c 1013.1 hPa 72% 0.0mm
24/07:30pm NNE 9-17 kts 23.6°c 1012.9 hPa 70% 0.0mm
24/07:00pm NNE 10-17 kts 24.4°c 1012.7 hPa 68% 0.0mm
24/06:30pm NNE 10-18 kts 25.1°c 1012.6 hPa 66% 0.0mm
24/06:00pm NE 10-18 kts 25.6°c 1012.5 hPa 65% 0.0mm
24/05:30pm ENE 11-17 kts 25.9°c 1012.4 hPa 63% 0.0mm
24/05:00pm ENE 12-18 kts 26.2°c 1012.4 hPa 63% 0.0mm
24/04:30pm NE 10-16 kts 26.8°c 1012.6 hPa 59% 0.0mm
24/04:00pm ENE 11-16 kts 27.5°c 1012.8 hPa 59% 0.0mm
24/03:30pm ENE 11-15 kts 27.4°c 1013.2 hPa 58% 0.0mm
24/03:00pm E 10-16 kts 27.8°c 1013.4 hPa 57% 0.0mm
24/02:30pm E 11-16 kts 27.1°c 1013.8 hPa 58% 0.0mm
24/02:00pm E 11-15 kts 27.3°c 1014.2 hPa 56% 0.0mm
24/01:30pm NNE 7-12 kts 28.3°c 1014.5 hPa 53% 0.0mm
24/01:00pm NNE 6-9 kts 27.7°c 1014.9 hPa 60% 0.0mm
24/12:30pm ENE 8-13 kts 25.9°c 1015.2 hPa 62% 0.0mm
24/12:00pm E 9-13 kts 26.2°c 1015.6 hPa 61% 0.0mm
24/11:30am E 8-11 kts 26.2°c 1015.8 hPa 61% 0.0mm
24/11:00am ESE 7-10 kts 26.2°c 1015.9 hPa 59% 0.0mm
24/10:30am SE 7-10 kts 26.8°c 1015.8 hPa 55% 0.0mm
24/10:00am SSE 7-10 kts 26.1°c 1016.0 hPa 60% 0.0mm
24/09:30am SSE 6-8 kts 25.6°c 1016.0 hPa 66% 0.0mm
24/09:00am SSE 4-8 kts 25.4°c 1015.9 hPa 62% 0.0mm
24/08:30am SSW 4-6 kts 23.9°c 1015.8 hPa 65% 0.0mm
24/08:00am W 5-7 kts 22.4°c 1015.8 hPa 68% 0.0mm
24/07:30am W 5-7 kts 21.8°c 1015.6 hPa 72% 0.0mm
24/07:00am WSW 7-9 kts 19.4°c 1015.4 hPa 78% 0.0mm
24/06:30am WSW 8-9 kts 18.9°c 1014.9 hPa 79% 0.0mm
24/06:00am W 6-8 kts 19.3°c 1014.6 hPa 76% 0.0mm
24/05:30am NW 4-5 kts 19.5°c 1014.3 hPa 73% 0.0mm
24/05:00am NNW 4-5 kts 18.5°c 1014.1 hPa 80% 0.0mm
24/04:30am NW 5 kts 18.5°c 1014.0 hPa 81% 0.0mm
24/04:00am NNW 5 kts 18.4°c 1014.2 hPa 83% 0.0mm
24/03:30am NNW 5 kts 18.3°c 1014.5 hPa 83% 0.0mm
24/03:00am N 5-6 kts 18.5°c 1014.7 hPa 83% 0.0mm
24/02:30am N 5-6 kts 18.6°c 1014.9 hPa 82% 0.0mm
24/02:00am N 6-7 kts 19.3°c 1015.0 hPa 77% 0.0mm
24/01:30am N 6-8 kts 19.9°c 1015.4 hPa 75% 0.0mm
24/01:00am N 7-9 kts 20.1°c 1015.5 hPa 75% 0.0mm
24/12:30am N 7-9 kts 20.5°c 1015.7 hPa 73% 0.0mm
24/12:00am NNE 6-9 kts 20.7°c 1016.1 hPa 73% 0.0mm
Time Wind Speed Temp Pressure Rel. Hum Rain
23/11:30pm NNE 6-9 kts 20.8°c 1016.4 hPa 73% 0.0mm
23/11:00pm NNE 6-10 kts 20.8°c 1016.3 hPa 74% 0.0mm
23/10:30pm NNE 6-9 kts 20.9°c 1016.1 hPa 74% 0.0mm
23/10:00pm NNE 6-9 kts 21.1°c 1016.0 hPa 75% 0.0mm
23/09:30pm NNE 6-9 kts 21.3°c 1015.8 hPa 74% 0.0mm
23/09:00pm N 6-9 kts 21.2°c 1015.6 hPa 76% 0.0mm
23/08:30pm NNE 6-9 kts 21.6°c 1015.2 hPa 75% 0.0mm
23/08:00pm N 6-9 kts 22.1°c 1015.0 hPa 74% 0.0mm
23/07:30pm NNE 7-11 kts 23.3°c 1014.7 hPa 70% 0.0mm
23/07:00pm NNE 8-13 kts 24.3°c 1014.4 hPa 66% 0.0mm
23/06:30pm NE 9-13 kts 25.1°c 1014.2 hPa 59% 0.0mm
23/06:00pm NE 9-16 kts 25.8°c 1014.0 hPa 59% 0.0mm
23/05:30pm NE 10-14 kts 26.1°c 1013.8 hPa 57% 0.0mm
23/05:00pm NE 11-16 kts 26.4°c 1013.7 hPa 56% 0.0mm
23/04:30pm NE 10-16 kts 27.2°c 1013.8 hPa 54% 0.0mm
23/04:00pm NE 11-17 kts 27.4°c 1013.8 hPa 55% 0.0mm
23/03:30pm ENE 11-16 kts 27.3°c 1013.8 hPa 56% 0.0mm
23/03:00pm NE 11-18 kts 27.6°c 1014.0 hPa 53% 0.0mm
23/02:30pm ENE 12-17 kts 27.8°c 1014.0 hPa 54% 0.0mm
23/02:00pm ENE 11-16 kts 28.5°c 1014.1 hPa 56% 0.0mm
23/01:30pm ENE 12-17 kts 27.7°c 1014.3 hPa 56% 0.0mm
23/01:00pm ENE 11-17 kts 28.0°c 1014.5 hPa 58% 0.0mm
23/12:30pm E 13-18 kts 27.4°c 1014.6 hPa 61% 0.0mm
23/12:00pm E 12-16 kts 27.2°c 1014.6 hPa 60% 0.0mm
23/11:30am ENE 8-12 kts 25.0°c 1014.8 hPa 64% 0.0mm
23/11:00am N 5-9 kts 28.4°c 1014.8 hPa 53% 0.0mm
23/10:30am NNW 6-11 kts 29.1°c 1014.8 hPa 53% 0.0mm
23/10:00am NNW 7-12 kts 27.7°c 1014.8 hPa 56% 0.0mm
23/09:30am NNW 5-8 kts 26.7°c 1014.8 hPa 58% 0.0mm
23/09:00am NW 5-9 kts 25.9°c 1014.9 hPa 62% 0.0mm
23/08:30am NNW 7-11 kts 25.2°c 1014.7 hPa 65% 0.0mm
23/08:00am NNW 5-7 kts 23.4°c 1014.6 hPa 70% 0.0mm
23/07:30am NNW 5-8 kts 21.3°c 1014.0 hPa 76% 0.0mm
23/07:00am NNW 5-7 kts 19.9°c 1013.8 hPa 83% 0.0mm
23/06:30am NW 5-8 kts 18.0°c 1013.6 hPa 90% 0.0mm
23/06:00am NNW 5-7 kts 17.5°c 1013.3 hPa 90% 0.0mm
23/05:30am NNW 5-6 kts 17.7°c 1012.9 hPa 87% 0.0mm
23/05:00am NW 4-6 kts 17.8°c 1012.5 hPa 88% 0.0mm
23/04:30am NNW 5-6 kts 17.9°c 1012.4 hPa 86% 0.0mm
23/04:00am NNW 6-8 kts 18.2°c 1012.4 hPa 86% 0.0mm
23/03:30am NNW 5-8 kts 18.6°c 1012.3 hPa 83% 0.0mm
23/03:00am NNW 6-9 kts 18.9°c 1012.5 hPa 82% 0.0mm
23/02:30am NNW 7-9 kts 19.0°c 1012.6 hPa 82% 0.0mm
23/02:00am N 8-11 kts 19.5°c 1012.7 hPa 80% 0.0mm
23/01:30am N 7-12 kts 19.6°c 1012.9 hPa 79% 0.0mm
23/01:00am N 8-12 kts 19.9°c 1013.0 hPa 78% 0.0mm
23/12:30am N 9-14 kts 20.1°c 1013.0 hPa 77% 0.0mm
23/12:00am N 10-14 kts 20.4°c 1013.1 hPa 76% 0.0mm